Date String (YYYY-MM-DD hh:mm:ss) UTC,Instrument flags,Ambient pressure (hPa),Sample flow (lpm),Bypass flow (lpm),Sample temperature (°C),Ambient temperature (°C),ASC tube jacket temperature (°C),LED temperature (°C),Box temperature (°C),Sample RH (%),Span deviation,Mass concentration (μg/m³),Mass concentration (μg/m³),Mass concentration (μg/m³)
DateTimeUTC,F1_M11,P_M11,Q1_M11,Q2_M11,T1_M11,T2_M11,T3_M11,T4_M11,T5_M11,U1_M11,ZSPAN_M11,X2_M11,X0_M11,X1_M11
2022-01-04 01:00:00,,0822.0,5.01,0.00,24.3,23.5,00.0,33.3,26.0,07.0,0000.0,0003.09,0003.86,0002.76
2022-01-04 01:01:00,,0821.9,5.00,0.00,24.2,23.5,00.0,33.3,25.9,07.5,0000.0,0002.71,0003.33,0002.41
2022-01-04 01:02:00,,0822.0,5.01,0.00,24.2,23.4,00.0,33.3,25.9,07.9,0000.0,0002.36,0002.94,0002.11
2022-01-04 01:03:00,,0822.1,5.01,0.00,24.2,23.5,00.0,33.3,25.9,07.9,0000.0,0002.21,0003.57,0001.97
2022-01-04 01:04:00,,0822.1,4.99,0.00,24.2,23.5,00.0,33.3,25.9,07.9,0000.0,0002.19,0003.63,0001.99
2022-01-04 01:05:00,,0822.1,5.01,0.00,24.2,23.5,00.0,33.3,26.0,07.9,0000.0,0002.18,0003.61,0002.01
2022-01-04 01:06:00,,0821.9,5.00,0.00,24.2,23.5,00.0,33.2,26.0,07.8,0000.0,0002.40,0003.81,0002.20
2022-01-04 01:07:00,,0822.0,5.00,0.00,24.3,23.6,00.0,33.2,26.0,07.8,0000.0,0002.90,0004.35,0002.69
2022-01-04 01:08:00,,0821.8,5.00,0.00,24.3,23.6,00.0,33.2,26.1,07.8,0000.0,0003.30,0005.00,0003.15
2022-01-04 01:09:00,,0821.8,5.00,0.00,24.3,23.6,00.0,33.2,26.1,07.8,0000.0,0003.54,0005.56,0003.37
2022-01-04 01:10:00,,0821.8,4.99,0.00,24.3,23.6,00.0,33.3,26.1,07.6,0000.0,0003.69,0005.86,0003.51
2022-01-04 01:11:00,,0821.8,5.02,0.00,24.3,23.7,00.0,33.3,26.1,07.6,0000.0,0003.81,0006.09,0003.62
2022-01-04 01:12:00,,0821.7,4.99,0.00,24.3,23.7,00.0,33.3,26.1,07.5,0000.0,0003.97,0006.47,0003.75
2022-01-04 01:13:00,,0821.6,5.01,0.00,24.3,23.7,00.0,33.3,26.1,07.5,0000.0,0004.08,0006.86,0003.84
2022-01-04 01:14:00,,0821.6,4.98,0.00,24.4,23.7,00.0,33.3,26.2,07.4,0000.0,0004.06,0006.53,0003.83
2022-01-04 01:15:00,,0821.5,5.00,0.00,24.4,23.7,00.0,33.3,26.2,07.4,0000.0,0003.98,0005.82,0003.76
2022-01-04 01:16:00,,0821.4,5.02,0.00,24.4,23.7,00.0,33.3,26.2,07.5,0000.0,0003.91,0005.69,0003.69
2022-01-04 01:17:00,,0821.5,4.98,0.00,24.4,23.7,00.0,33.3,26.2,07.5,0000.0,0003.77,0005.37,0003.56
2022-01-04 01:18:00,,0821.5,5.01,0.00,24.4,23.7,00.0,33.3,26.2,07.6,0000.0,0003.44,0004.72,0003.25
2022-01-04 01:19:00,,0821.5,4.99,0.00,24.4,23.7,00.0,33.3,26.2,07.7,0000.0,0002.99,0003.91,0002.71
2022-01-04 01:20:00,,0821.6,5.01,0.00,24.4,23.8,00.0,33.3,26.2,07.7,0000.0,0002.37,0003.11,0002.15
2022-01-04 01:21:00,,0821.7,4.99,0.00,24.4,23.8,00.0,33.3,26.2,07.6,0000.0,0001.94,0002.52,0001.77
2022-01-04 01:22:00,,0821.7,4.99,0.00,24.4,23.8,00.0,33.3,26.2,07.5,0000.0,0001.68,0002.23,0001.53
2022-01-04 01:23:00,,0821.7,5.00,0.00,24.4,23.7,00.0,33.3,26.1,08.1,0000.0,0001.47,0001.95,0001.34
2022-01-04 01:24:00,,0821.7,5.01,0.00,24.4,23.7,00.0,33.3,26.1,07.9,0000.0,0001.35,0001.66,0001.27
2022-01-04 01:25:00,,0821.7,4.98,0.00,24.4,23.7,00.0,33.3,26.2,07.8,0000.0,0001.37,0001.63,0001.29
2022-01-04 01:26:00,,0821.7,5.00,0.00,24.4,23.7,00.0,33.3,26.2,07.7,0000.0,0001.38,0001.69,0001.28
2022-01-04 01:27:00,,0821.7,5.00,0.00,24.4,23.7,00.0,33.3,26.2,07.6,0000.0,0001.36,0001.75,0001.24
2022-01-04 01:28:00,,0821.8,4.99,0.00,24.4,23.7,00.0,33.3,26.2,07.5,0000.0,0001.47,0001.97,0001.28
2022-01-04 01:29:00,,0821.8,5.01,0.00,24.4,23.7,00.0,33.3,26.2,07.4,0000.0,0001.58,0002.18,0001.37
2022-01-04 01:30:00,,0821.7,4.99,0.00,24.4,23.7,00.0,33.3,26.2,07.3,0000.0,0001.67,0002.41,0001.44
2022-01-04 01:31:00,,0821.7,5.02,0.00,24.4,23.7,00.0,33.3,26.2,07.1,0000.0,0001.74,0002.50,0001.51
2022-01-04 01:32:00,,0821.6,4.99,0.00,24.4,23.8,00.0,33.3,26.2,07.0,0000.0,0001.77,0002.56,0001.53
2022-01-04 01:33:00,,0821.5,5.00,0.00,24.4,23.8,00.0,33.3,26.2,06.9,0000.0,0001.74,0002.53,0001.50
2022-01-04 01:34:00,,0821.5,5.01,0.00,24.4,23.8,00.0,33.4,26.2,07.0,0000.0,0001.69,0002.45,0001.46
2022-01-04 01:35:00,,0821.5,5.00,0.00,24.4,23.8,00.0,33.4,26.2,07.1,0000.0,0001.59,0002.35,0001.35
2022-01-04 01:36:00,,0821.4,4.99,0.00,24.4,23.8,00.0,33.4,26.2,06.9,0000.0,0001.42,0002.13,0001.19
2022-01-04 01:37:00,,0821.5,5.01,0.00,24.4,23.8,00.0,33.4,26.2,07.0,0000.0,0001.26,0001.90,0001.06
2022-01-04 01:38:00,,0821.5,4.98,0.00,24.4,23.8,00.0,33.4,26.2,07.1,0000.0,0001.17,0001.74,0000.96
2022-01-04 01:39:00,,0821.5,5.00,0.00,24.4,23.8,00.0,33.4,26.2,07.0,0000.0,0001.03,0001.52,0000.88
2022-01-04 01:40:00,,0821.4,5.00,0.00,24.4,23.8,00.0,33.4,26.2,06.9,0000.0,0000.93,0001.35,0000.79
2022-01-04 01:41:00,,0821.4,4.99,0.00,24.4,23.8,00.0,33.4,26.2,06.7,0000.0,0000.84,0001.11,0000.72
2022-01-04 01:42:00,,0821.4,5.01,0.00,24.5,23.8,00.0,33.4,26.3,06.6,0000.0,0000.77,0001.14,0000.64
2022-01-04 01:43:00,,0821.4,5.00,0.00,24.5,23.8,00.0,33.4,26.3,06.6,0000.0,0000.73,0001.20,0000.60
2022-01-04 01:44:00,,0821.4,4.99,0.00,24.5,23.8,00.0,33.4,26.3,06.6,0000.0,0000.71,0001.19,0000.59
2022-01-04 01:45:00,,0821.4,5.02,0.00,24.5,23.8,00.0,33.4,26.3,06.6,0000.0,0000.70,0001.31,0000.58
2022-01-04 01:46:00,,0821.4,4.99,0.00,24.5,23.8,00.0,33.4,26.3,06.6,0000.0,0000.67,0001.53,0000.55
2022-01-04 01:47:00,,0821.4,5.00,0.00,24.5,23.8,00.0,33.4,26.3,06.7,0000.0,0000.66,0001.52,0000.55
2022-01-04 01:48:00,,0821.4,5.01,0.00,24.5,23.8,00.0,33.4,26.2,08.7,0000.0,0001.12,0002.03,0000.97
2022-01-04 01:49:00,,0821.3,5.00,0.00,24.5,23.8,00.0,33.4,26.2,07.9,0000.0,0001.68,0002.62,0001.52
2022-01-04 01:50:00,,0821.3,5.00,0.00,24.4,23.7,00.0,33.4,26.2,08.5,0000.0,0002.15,0003.11,0001.95
2022-01-04 01:51:00,,0821.3,5.01,0.00,24.4,23.7,00.0,33.4,26.1,09.8,0000.0,0003.33,0004.80,0003.11
2022-01-04 01:52:00,,0821.3,4.99,0.00,24.4,23.7,00.0,33.4,26.1,10.0,0000.0,0004.22,0006.63,0003.95
2022-01-04 01:53:00,,0821.4,5.01,0.00,24.4,23.6,00.0,33.4,26.1,10.0,0000.0,0005.14,0008.56,0004.84
2022-01-04 01:54:00,,0821.5,4.99,0.00,24.4,23.6,00.0,33.4,26.1,09.8,0000.0,0006.10,0010.21,0005.69
2022-01-04 01:55:00,,0821.5,5.01,0.00,24.4,23.7,00.0,33.4,26.2,09.8,0000.0,0007.05,0011.31,0006.58
2022-01-04 01:56:00,,0821.6,4.99,0.00,24.4,23.7,00.0,33.4,26.1,10.0,0000.0,0007.99,0012.39,0007.44
2022-01-04 01:57:00,,0821.6,5.01,0.00,24.4,23.6,00.0,33.4,26.1,10.1,0000.0,0008.96,0013.34,0008.31
2022-01-04 01:58:00,,0821.5,5.00,0.00,24.3,23.5,00.0,33.4,25.9,10.0,0000.6,0009.88,0014.56,0009.18
2022-01-04 01:59:00,,0821.4,4.99,0.00,24.3,23.5,00.0,33.4,25.9,10.1,0003.2,0010.60,0015.47,0009.85
